Location: Newark
(30.1000°N, 109.4667°E)
Time: 14:48:27
(UTC+00:00)

Courier 1B Rocket - Pass Details

Date: 18 February 2020
Orbit: 920 x 1202 km, 28.2° (Epoch: 31 March)

Event Time Altitude Azimuth Distance (km) Brightness Sun altitude
Exits shadow 19:29:06 14° 90° (E) 2,603 7.6 -50.0°
Drops below altitude 10° 19:29:59 10° 90° (E) 2,910 7.9 -49.8°
Sets 19:32:51 0° 88° (E) 3,911 8.8 -49.3°
